Weather in Kyahta

Russia / Republic of Buryatia     50°21′18″N   106°26′59″E
temp.,
°C
wind,
m/s
gust,
m/s
humid.,
%
clouds,
%
prec.,
mm/h
press.,
hPa
HPBL,
m
18 april, sun
sun1823:00+10w3332100 0.0 100119
02:00+6nne71161100 0.0 1007486
05:00+1nne916605 0.0 1013851
08:000nne10154891 0.0 1019860
11:00+2nne9113798 0.0 10211304
14:00+5nne87305 0.0 10191650
17:00+6ne66280 0.0 10181493
20:00+2nne47315 0.0 1019156
19 april, mon
mon1923:000nne223518 0.0 102119
02:00−2nne11325 0.0 102110
05:00−3e00335 0.0 102010
08:00+1sse11295 0.0 1020200
11:00+8sw34275 0.0 1015860
14:00+14sw67265 0.0 10101329
17:00+16ssw68231 0.0 10071778
20:00+11s483088 0.0 1006109
20 april, tue
tue2023:00+9sse3532100 0.0 100468
02:00+9s2234100 0.0 100324
05:00+7ese114114 0.0 100413
08:00+8nne5741100 0.0 1006396
11:00+8nne544463 0.0 1008705
14:00+13ne43320 0.0 1005900
17:00+15ne44290 0.0 1002793
20:00+7nne1015420 0.0 1005590
21 april, wed
wed2123:00+2nne7135344 0.0 1010605
02:00+1nne712635 0.0 1012641
05:00−1nne511685 0.0 1014605
08:000nne71059100 0.0 1016835
11:00+3nne884994 0.0 10151186
14:00+6nne884086 0.0 10131410
17:00+3n11114578 0.0 10151242
20:000n8125291 0.0 1020986
22 april, thu
thu2223:00−3nne71276100 0.1 1024750
02:00−2nne6116098 0.1 1024783
05:00−3n4962100 0.0 1025479
08:00−2n7951100 0.0 1025768
11:00−1nne7869100 1.1 1027760
14:00−2nne6990100 3.3 1027587
17:00−1nne61088100 2.3 1026561
20:00−1nne71286100 2.4 1027512